Location: Unspecified
(0.0000°N, 0.0000°E)
Time: 13:17:45
(UTC+00:00)

Vanguard 1 Rocket - Pass Details

Date: 17 February 2023
Orbit: 652 x 4223 km, 34.3° (Epoch: 30 March)

Event Time Altitude Azimuth Distance (km) Brightness Sun altitude
Rises 20:50:12 0° 261° (W) 8,293 13.2 -38.1°
Reaches altitude 10° 20:58:26 10° 248° (WSW) 7,422 12.7 -40.1°
Maximum altitude 21:16:47 23° 203° (SSW) 5,923 11.7 -44.5°
Drops below altitude 10° 21:31:35 10° 156° (SSE) 5,910 11.4 -48.0°
Sets 21:37:07 0° 141° (SE) 6,351 11.6 -49.3°
